Location: ?????????
(55.7920°N, 38.7374°E)
Time: 09:12:00
(UTC+00:00)

Daily predictions for brighter satellites

Satellite Brightness Start Highest point End
(mag) Time Altitude Azimuth Time Altitude Azimuth Time Altitude Azimuth
Cosmos 2369 4.3 17:47:32 10° NW 17:53:11 60° WSW 17:58:48 10° SSE
Cosmos 1805 Rocket 3.7 17:54:50 10° SSW 17:59:17 86° W 18:03:48 10° NNE
Cosmos 1900 4.4 17:55:38 10° SW 18:00:38 85° SE 18:05:44 10° NE
Cosmos 2082 Rocket 2.7 17:55:52 10° S 18:01:06 39° ESE 18:06:19 10° NE
Cosmos 2278 4.0 17:55:59 10° NW 18:01:43 71° WSW 18:07:22 10° SSE
CZ-2C R/B 2.9 17:57:42 10° NNE 18:02:52 71° WNW 18:08:02 10° SSW
SPOT 1/Viking Rocket 3.7 17:58:01 10° SSE 18:03:10 63° ENE 18:08:22 10° NNW
NOSS 2 (A) 4.5 18:02:41 10° WNW 18:05:29 60° SW 18:07:52 10° SE
Cosmos 2322 Rocket 2.9 18:01:44 10° NNW 18:07:14 46° NE 18:12:44 10° ESE
DMSP B5D2-2 4.5 18:02:21 10° NNE 18:07:34 70° WNW 18:12:46 10° SSW
MetOp-B 4.3 18:04:21 10° SSE 18:09:43 83° WSW 18:15:08 10° NNW
Cosmos 2242 Rocket 4.1 18:08:35 10° N 18:12:53 46° ENE 18:17:09 10° SE
USA 32 4.4 18:07:58 10° SSE 18:12:58 48° E 18:18:00 10° NNE
USA 267 3.7 18:10:17 10° ENE 18:16:21 39° SE 18:22:23 10° SSW
Okean 1-7 3.9 18:12:43 10° N 18:16:44 35° ENE 18:20:29 11° SE
NOSS 3-2 (A) 4.2 18:12:17 10° S 18:17:16 30° ESE 18:22:50 10° ENE
FALCON 9 DEB 4.5 18:15:14 10° SSW 18:17:56 21° SSE 18:20:37 10° E
Lacrosse 5 2.0 18:12:57 10° WNW 18:18:01 69° SSW 18:22:55 11° ESE
Cosmos 1633 Rocket 3.1 18:14:59 10° S 18:19:23 68° E 18:23:48 10° NNE
Cosmos 2360 Rocket 3.2 18:14:40 10° NNW 18:19:58 38° NE 18:25:14 10° ESE
Cosmos 1862 4.5 18:16:07 10° SSW 18:20:03 48° WNW 18:24:01 10° N
Cosmos 614 Rocket 4.1 18:15:03 10° SSW 18:20:15 86° WNW 18:25:31 10° NNE
IGS 5A 3.6 18:19:15 10° SSE 18:23:23 80° WSW 18:27:34 10° NNW
Cosmos 1867 4.0 18:20:06 10° S 18:25:08 40° ESE 18:30:12 10° NE
OBJECT-B 3.4 18:23:19 10° SW 18:25:47 19° W 18:28:17 10° NW
COSMOS 2428 4.5 18:22:30 10° NNW 18:27:12 25° NNE 18:31:55 10° E
SWAS 4.4 18:24:22 10° SSW 18:28:39 71° ESE 18:33:00 10° NE
Cosmos 676 Rocket 4.3 18:23:32 10° S 18:28:40 50° ESE 18:33:50 10° NE
Cosmos 1980 Rocket 2.8 18:23:20 10° NW 18:28:52 53° WSW 18:34:20 10° S
SL-27 R/B 4.5 18:31:42 11° ESE 18:32:09 11° E 18:33:09 10° E
Cosmos 540 Rocket 4.1 18:28:44 10° NNW 18:33:44 46° NE 18:38:11 13° SE
Terra 2.2 18:30:03 12° SE 18:34:15 52° ENE 18:38:53 10° N
Cosmos 1602 4.4 18:31:16 11° SSE 18:34:39 37° E 18:38:18 10° NNE
Cosmos 1238 Rocket 2.4 18:35:59 13° SSE 18:38:29 44° E 18:41:22 10° NNE
Cosmos 1437 Rocket 2.9 18:35:05 10° N 18:38:52 55° ENE 18:41:48 16° SSE
Cosmos 841 Rocket 4.0 18:34:31 10° NNW 18:39:39 52° NE 18:44:01 14° SE
ERS-1 Rocket 3.0 18:36:10 11° SSE 18:40:59 84° ENE 18:46:02 10° NNW
Cosmos 921 Rocket 3.3 18:36:57 10° NNW 18:41:09 63° WSW 18:45:01 12° S
Meteor 1-19 Rocket 4.2 18:35:53 10° NNW 18:41:20 74° ENE 18:46:14 13° SSE
Okean 1 3.3 18:38:02 10° N 18:42:06 79° ENE 18:45:36 14° SSE
Cosmos 1697 Rocket 4.4 18:38:39 10° NW 18:43:16 27° WSW 18:47:51 10° SSW
Cosmos 1934 Rocket 4.1 18:37:11 10° SSW 18:43:35 85° W 18:50:00 10° N
Resurs 01 Rocket 3.4 18:39:57 10° SSW 18:43:50 29° W 18:47:45 10° NNW
Cosmos 1470 Rocket 3.5 18:39:38 10° S 18:44:01 69° E 18:48:24 10° NNE
Cosmos 468 Rocket 4.1 18:39:26 10° NNW 18:44:48 85° WSW 18:49:22 14° SSE
Cosmos 2237 Rocket 4.4 18:41:13 10° NNW 18:45:26 21° NNE 18:49:36 10° ENE
Cosmos 2333 Rocket 3.6 18:41:28 10° NNW 18:46:38 32° NNE 18:51:46 10° E
deb Kosmos-1763 3.9 18:43:43 10° SSW 18:47:21 79° ESE 18:51:02 10° NNE
Cosmos 1833 Rocket 2.9 18:41:49 10° SW 18:47:27 78° NW 18:53:08 10° NNE
Cosmos 405 Rocket 2.8 18:47:37 12° S 18:50:51 52° E 18:54:32 10° NNE
Cosmos 1184 Rocket 2.9 18:49:00 10° SSW 18:52:19 80° WNW 18:55:38 10° NNE
USA 276 3.2 18:50:00 10° WSW 18:52:47 28° S 18:54:02 21° SE
GP-B 3.6 18:49:30 10° N 18:53:55 63° W 18:58:18 10° SSW
USA 234 3.7 18:49:43 14° SE 18:55:07 49° SW 19:01:27 10° WNW
Cosmos 1814 Rocket 4.3 18:52:04 10° NNW 18:57:12 57° NE 19:01:11 17° SE
H-2A R/B 3.9 18:53:29 10° N 18:57:34 64° WNW 19:01:40 10° SSW
SPOT 5 2.6 18:54:25 14° SSE 18:58:04 81° WSW 19:02:31 10° NNW
Cosmos 1570 Rocket 4.1 18:54:58 10° NNW 19:00:18 71° ENE 19:04:19 18° SE
Cosmos 1954 Rocket 4.0 18:55:13 10° SSW 19:00:32 80° ESE 19:05:54 10° NNE
SL-4 R/B 2.4 18:58:02 10° SW 19:01:31 33° SSE 19:04:01 15° ESE
Spot 2 Rocket 4.5 18:57:46 10° S 19:02:39 43° W 19:07:31 10° NNW
X-37B 2.9 19:01:15 10° SSW 19:01:55 12° SSW 19:01:55 12° SSW
ATLAS 3B R/B 4.0 19:01:09 15° SE 19:03:10 18° ESE 19:07:20 10° ENE
Cosmos 2208 Rocket 4.2 18:59:39 10° NNW 19:04:57 67° ENE 19:08:46 19° SE
ERBS 2.5 19:04:02 10° W 19:07:21 70° N 19:10:40 10° E
Cosmos 1515 3.7 19:04:19 10° NNW 19:08:11 79° W 19:10:54 18° S
Meteor 2-4 Rocket 3.7 19:05:01 10° NNW 19:10:46 79° ENE 19:14:56 18° SSE
Cosmos 407 Rocket 4.5 19:08:32 10° SW 19:13:43 51° NW 19:18:53 10° NNE
USA 238 DEB 3.7 19:07:34 10° SSW 19:14:04 58° SE 19:20:54 10° NE
USA 238 3.7 19:07:42 10° SSW 19:14:11 58° SE 19:21:01 10° NE
SAR-Lupe-2 3.5 19:10:54 10° NNE 19:14:30 73° ESE 19:17:11 17° S
Cosmos 44 3.4 19:10:06 10° NW 19:14:55 74° SW 19:18:19 21° SE
Cosmos 1536 4.5 19:14:18 17° ESE 19:15:34 19° E 19:18:25 10° NE
Cosmos 44 Rocket 4.4 19:11:48 10° NW 19:16:28 42° NNE 19:21:15 10° E
Iridium 4 Rocket 3.5 19:15:34 22° SSE 19:18:01 45° E 19:22:01 10° NNE
CARTOSAT-1 4.4 19:16:32 13° S 19:20:13 46° W 19:24:25 10° NNW
Cosmos 1933 Rocket 3.8 19:20:42 10° SSW 19:25:07 72° WNW 19:29:35 10° N
Cosmos 1763 Rocket 4.2 19:22:34 10° NW 19:27:43 50° WSW 19:31:33 17° S
Geosat 4.1 19:25:28 21° SE 19:28:53 77° NE 19:33:57 10° NNW
SL-16 R/B 2.6 19:24:55 10° NW 19:30:29 56° WSW 19:34:19 20° S
Cosmos 2100 Rocket 4.0 19:27:57 17° S 19:32:44 68° E 19:38:51 10° NNE
Cosmos 1605 Rocket 4.5 19:28:09 10° SSW 19:34:11 60° WNW 19:40:14 10° N
Cosmos 2322 4.1 19:29:32 10° NNW 19:35:10 58° NE 19:39:13 19° ESE
CENTAUR R/B 2.8 19:29:42 10° SSW 19:35:37 52° SE 19:42:38 10° NE
Cosmos 1869 Rocket 3.6 19:32:52 22° S 19:35:39 68° E 19:40:06 10° NNE
Cosmos 1242 Rocket 3.4 19:33:22 10° N 19:36:47 38° ENE 19:38:16 26° ESE
Cosmos 2219 Rocket 2.9 19:32:17 10° NNW 19:37:47 48° NE 19:42:13 16° ESE
OPS 6432 4.5 19:36:11 10° WSW 19:39:47 73° NW 19:42:46 10° NE
Lacrosse 4 Rocket 3.5 19:41:19 13° E 19:41:19 13° E 19:42:42 10° E
Cosmos 2082 Rocket 2.9 19:39:28 10° SW 19:45:04 56° NW 19:50:40 10° NNE
Cosmos 2173 Rocket 3.9 19:40:28 18° S 19:45:09 76° E 19:51:17 10° NNE
Spot 4 4.1 19:42:58 25° SE 19:45:40 62° ENE 19:50:28 10° N
Cosmos 2333 4.4 19:43:57 10° NNW 19:49:46 70° NE 19:53:33 22° SE
Cosmos 1674 Rocket 4.1 19:45:36 10° N 19:49:48 47° ENE 19:51:48 27° SE
GENESIS II 4.4 19:45:57 10° NW 19:50:00 68° NE 19:52:11 25° ESE
Okean 3 3.5 19:46:29 10° NNW 19:50:47 76° W 19:53:02 28° S
Cosmos 2237 4.3 19:45:11 10° NW 19:50:55 72° WSW 19:54:15 26° SSE
Cosmos 2322 Rocket 2.8 19:45:55 10° NW 19:51:24 49° WSW 19:54:49 22° S
Cosmos 1725 Rocket 4.3 19:48:44 23° SSE 19:52:30 54° E 19:58:40 10° NNE
Okean 1-7 4.3 19:50:23 10° NNW 19:54:19 34° W 19:57:20 15° SSW
FALCON 9 DEB 3.3 19:51:05 10° WSW 19:54:27 47° SSE 19:55:31 34° ESE
Cosmos 1356 4.0 19:54:19 36° SE 19:54:58 40° E 19:58:14 10° NNE
ALOS 2 3.4 19:54:50 24° ESE 19:57:02 43° ENE 20:01:12 10° N
SL-16 R/B 4.4 19:52:45 10° NNW 19:57:12 23° NNE 20:01:40 10° ENE
EO 1 Del DPAF 4.3 19:55:34 10° NE 19:58:51 28° E 19:59:30 26° ESE
USA 267 3.2 19:53:24 10° ENE 19:59:59 78° SSE 20:06:33 10° WSW
Lacrosse 5 3.2 19:56:17 10° W 20:00:23 25° SW 20:02:05 21° SSW
Cosmos 2016 Rocket 4.0 19:59:46 23° S 20:03:57 74° E 20:10:21 10° NNE
Cosmos 2360 Rocket 2.3 19:58:43 10° NW 20:04:22 65° WSW 20:07:25 27° S
Cosmos 1459 Rocket 4.1 19:59:29 17° SSW 20:04:28 84° WNW 20:10:54 10° N
SL-27 R/B 2.3 20:05:13 31° SSW 20:06:41 82° WNW 20:10:02 10° NNE
Cosmos 1850 Rocket 4.1 20:01:25 10° SSW 20:06:43 77° WNW 20:12:01 10° NNE
NOSS 3-2 (A) 3.5 20:01:24 10° SW 20:07:23 87° NW 20:14:24 10° NE
Cosmos 1867 4.1 20:03:10 10° WSW 20:08:35 64° NW 20:14:03 10° NE
Thor Agena Rocket 3.9 20:05:34 10° NNE 20:10:30 48° E 20:12:40 30° SSE
Cosmos 1733 Rocket 3.3 20:09:09 33° SSE 20:10:47 54° E 20:15:07 10° NNE
Terra 3.3 20:08:56 14° SSW 20:12:15 29° W 20:16:25 10° NNW
COSMOS 2428 3.0 20:06:48 10° NNW 20:12:33 66° NE 20:16:13 23° SE
Cosmos 2221 Rocket 3.9 20:08:55 10° NNW 20:13:19 59° W 20:15:30 28° SSW
Cosmos 2061 Rocket 3.9 20:09:55 23° S 20:13:59 83° E 20:20:13 10° NNE
NOSS 3-2 (C) 3.4 20:08:38 10° SW 20:14:34 79° SE 20:21:29 10° NE
Cosmos 540 Rocket 4.4 20:10:31 10° NW 20:15:18 39° WSW 20:17:59 23° SSW
Cosmos 1864 Rocket 4.5 20:13:40 25° S 20:17:27 77° E 20:23:45 10° NNE
Cosmos 1500 3.9 20:16:15 21° SW 20:18:26 48° WNW 20:22:06 10° N
Meteor 1-11 Rocket 3.7 20:16:06 26° S 20:19:26 79° ESE 20:25:15 10° NNE
Cosmos 1802 Rocket 4.2 20:23:40 19° SSW 20:28:26 72° WNW 20:34:49 10° N
Cosmos 1666 2.7 20:28:29 37° SSW 20:29:50 75° WNW 20:33:37 10° N
Cosmos 2237 Rocket 3.1 20:25:29 10° NNW 20:30:57 45° NE 20:35:33 14° ESE
Cosmos 2333 Rocket 2.2 20:25:45 10° NW 20:31:35 86° WSW 20:34:36 30° SSE
Cosmos 1743 3.2 20:35:16 39° SE 20:36:04 45° E 20:39:49 10° NNE
Cosmos 2233 Rocket 4.0 20:33:38 29° S 20:37:03 71° E 20:43:22 10° NNE
Cosmos 1271 Rocket 2.6 20:34:42 10° NNW 20:38:30 86° ENE 20:39:29 48° SSE
Cosmos 2084 Rocket 3.3 20:36:31 23° SW 20:39:09 77° SE 20:43:30 10° NE
Cosmos 1908 Rocket 4.1 20:38:45 34° SE 20:39:59 44° E 20:44:08 10° NNE
SL-4 R/B 2.6 20:37:10 10° WSW 20:39:35 32° SW 20:39:35 32° SW
COSMOS 2487 2.5 20:42:46 53° SE 20:43:00 55° ESE 20:46:24 10° NNE
ERBS 2.1 20:40:25 10° WNW 20:43:45 85° SSW 20:44:21 56° ESE
Cosmos 1378 Rocket 3.6 20:40:04 10° NNW 20:44:33 73° W 20:46:08 39° S
MOS 1-B Rocket 3.9 20:40:03 10° NNE 20:45:49 75° WNW 20:49:29 23° SSW
Cosmos 2344 4.3 20:38:50 10° NW 20:47:28 79° NNE 20:59:23 10° ESE
Okean 2 3.5 20:46:14 10° N 20:50:20 66° ENE 20:51:36 41° SE
Cosmos 1536 3.2 20:50:01 32° SW 20:51:38 57° WNW 20:55:34 10° N
ATLAS 3B R/B 2.6 20:48:21 22° SSW 20:52:37 63° SE 20:59:13 10° NE
Cosmos 1378 3.5 20:51:39 10° NNW 20:55:20 54° W 20:56:10 43° SW
NOSS 5 (C) 4.3 20:55:06 63° SSE 20:55:21 66° SE 20:58:26 10° NE
Helios 1A 3.2 20:55:08 37° SE 20:56:38 63° ENE 21:00:51 10° N
Cosmos 44 Rocket 3.3 20:53:23 10° NW 20:58:19 68° SW 21:00:16 37° SSE
Cosmos 1975 Rocket 3.3 20:56:01 10° N 21:00:31 65° ENE 21:02:08 37° SE
SL-24 DEB 4.4 20:56:06 10° N 21:00:52 65° E 21:02:36 38° SSE
Cosmos 1486 Rocket 4.0 21:00:31 36° S 21:02:34 64° ESE 21:07:43 10° NNE
USA 238 DEB 4.2 20:58:25 10° WSW 21:05:07 62° NNW 21:12:11 10° NE
USA 238 4.2 20:58:32 10° WSW 21:05:14 62° NNW 21:12:18 10° NE
Cosmos 1242 Rocket 4.2 21:08:34 10° NW 21:11:30 23° W 21:12:17 22° WSW
SL-16 R/B 4.4 21:11:17 10° WNW 21:13:23 12° W 21:15:30 10° WSW
Cosmos 2227 Rocket 4.1 21:11:44 13° ESE 21:13:33 15° E 21:16:45 10° ENE
Cosmos 1707 3.6 21:10:21 10° N 21:14:07 42° ENE 21:15:25 31° ESE
Nimbus 7 Rocket 4.3 21:10:23 10° NNE 21:16:18 90° ESE 21:19:23 30° SSW
Lacrosse 4 Rocket 1.3 21:17:36 46° SSW 21:18:45 71° SE 21:22:55 10° NE
Cosmos 1842 3.2 21:15:52 10° NNW 21:19:49 75° W 21:20:42 51° SSW
Cosmos 1975 2.9 21:19:12 48° SSE 21:20:06 65° E 21:24:08 10° NNE
Cosmos 2219 Rocket 2.6 21:16:23 10° NW 21:21:50 47° WSW 21:23:54 33° SSW
YAOGAN 11 4.1 21:21:31 40° SSE 21:23:11 89° W 21:27:48 10° NNW
Cosmos 1833 4.2 21:21:18 24° SW 21:24:50 80° NW 21:30:33 10° NNE
SL-16 R/B 3.9 21:19:42 10° ESE 21:25:12 34° NE 21:30:43 10° N
Meteor 1-21 4.2 21:19:29 10° NNW 21:25:21 82° WSW 21:28:00 34° S
Sich 1 Rocket 4.1 21:24:48 35° SE 21:26:04 46° E 21:30:17 10° NNE
CENTAUR R/B 3.1 21:19:49 10° WSW 21:26:15 66° NNW 21:33:57 10° NE
CZ-2D R/B 4.4 21:24:21 10° NE 21:26:52 13° E 21:29:23 10° ESE
Cosmos 773 Rocket 3.9 21:23:19 10° NNW 21:28:31 89° WSW 21:30:47 34° SSE
Cosmos 1538 Rocket 4.2 21:24:19 10° NNW 21:29:30 68° ENE 21:32:26 26° SE
Cosmos 1544 3.0 21:29:27 57° SSW 21:30:07 83° WNW 21:33:50 10° N
NOSS 0 Rocket 4.0 21:24:46 10° NW 21:30:59 68° WSW 21:34:02 31° SSE
DNEPR-1 R/B 4.2 21:25:06 10° NW 21:31:32 85° NE 21:35:12 20° SE
EO 1 Del DPAF 4.4 21:29:27 10° N 21:32:56 37° WNW 21:34:29 25° WSW
ALOS 2 3.8 21:32:14 26° SW 21:33:30 31° W 21:37:27 10° NNW
Cosmos 1025 Rocket 3.3 21:31:34 10° N 21:35:48 58° ENE 21:37:24 35° SE
PSLV R/B 4.2 21:35:38 10° NNE 21:40:10 49° E 21:41:46 34° SSE
Cosmos 968 Rocket 3.4 21:38:43 32° SW 21:41:08 81° WNW 21:46:19 10° NNE
Landsat 4 4.1 21:38:52 10° NNE 21:42:35 48° ESE 21:43:17 42° SE
SL-16 R/B 2.8 21:36:57 10° NNW 21:42:36 55° NE 21:48:05 10° SE
USA 267 3.3 21:36:33 10° E 21:43:06 81° N 21:49:41 10° W
Cosmos 1437 2.6 21:42:29 10° N 21:45:28 65° ENE 21:45:34 64° E
Cosmos 2360 Rocket 4.1 21:44:20 10° WNW 21:47:18 15° W 21:49:10 13° WSW
Helios 1B rocket 3.1 21:49:45 10° NNE 21:53:39 42° E 21:54:47 34° SE
COSMOS 2428 3.7 21:51:30 10° NW 21:56:30 32° WSW 21:58:12 27° SW
Cosmos 1626 4.4 21:55:02 10° NNE 21:57:55 21° ENE 22:00:37 11° ESE
Cosmos 1354 Rocket 4.0 21:57:35 34° SSW 22:00:01 89° ESE 22:05:24 10° NNE
Timation 2 Rocket 4.2 21:57:48 32° S 22:00:28 54° ESE 22:06:19 10° NE
Cosmos 1536 Rocket 3.5 21:58:47 10° N 22:03:09 82° ENE 22:04:44 39° SSE
MINOTAUR 4 R/B 4.2 22:03:29 51° SW 22:03:56 56° WSW 22:07:27 10° NNW
NOSS 3-2 (C) 4.5 21:59:52 10° W 22:05:58 52° NNW 22:13:06 10° ENE
Cosmos 1980 3.9 22:00:35 10° NW 22:06:07 54° WSW 22:08:24 33° S
Meteor 2-9 Rocket 4.3 22:03:34 31° SSW 22:06:19 72° WNW 22:12:06 10° NNE
Cosmos 2297 Rocket 3.0 22:04:45 27° SSE 22:07:01 38° ESE 22:12:13 10° NE
Cosmos 2026 Rocket 4.1 22:00:57 10° N 22:07:03 71° ENE 22:10:55 24° SSE
Cosmos 1782 Rocket 4.0 22:08:19 33° SW 22:09:55 51° WNW 22:14:11 10° N
KORONAS-FOTON 4.4 22:06:29 10° N 22:10:13 51° ENE 22:11:43 31° SE
Cosmos 1680 Rocket 4.0 22:05:52 10° NNW 22:11:04 57° NE 22:15:42 13° SE
Cosmos 2219 3.7 22:11:09 30° SSE 22:13:29 47° ESE 22:18:52 10° NE
Cosmos 2333 Rocket 3.7 22:10:57 10° NW 22:15:07 21° W 22:16:34 19° WSW
Cosmos 2237 Rocket 2.5 22:09:41 10° NW 22:15:08 50° WSW 22:17:20 33° SSW
Resurs 1-4 Rocket 3.6 22:10:43 10° NE 22:15:12 27° E 22:18:22 16° SE
Cosmos 1627 Rocket 4.5 22:11:30 10° N 22:17:41 85° ENE 22:21:26 26° SSE
Cosmos 1607 3.9 22:11:50 10° NW 22:18:17 76° SW 22:24:10 13° SE
Meteor 2-5 Rocket 4.2 22:13:37 10° N 22:19:14 58° ENE 22:23:23 18° SE
Cosmos 158 Rocket 4.4 22:14:42 10° NNW 22:20:03 66° ENE 22:24:43 14° SE
UNK 4.4 22:18:09 18° SE 22:21:26 52° ENE 22:25:59 10° N
Cosmos 1634 Rocket 4.3 22:18:39 25° SSE 22:22:16 59° E 22:28:22 10° NNE
In-Cosmos 22 4.2 22:17:08 10° NNW 22:22:43 68° W 22:25:18 32° S
Cosmos 1777 Rocket 4.2 22:22:25 33° S 22:24:44 64° ESE 22:30:00 10° NNE
Cosmos 1464 Rocket 4.3 22:22:23 26° SW 22:25:52 57° WNW 22:31:59 10° N
Meteor 1-29 3.2 22:25:58 10° NNE 22:29:24 58° ESE 22:30:13 44° SSE
Spot 1 3.9 22:32:21 33° SSE 22:34:11 86° ENE 22:38:17 10° NNW
Iridium 51 4.4 22:34:41 10° N 22:38:59 68° W 22:40:19 40° SSW
Cosmos 1766 4.3 22:38:17 25° SE 22:39:57 38° E 22:43:35 10° NNE
Cosmos 923 Rocket 4.0 22:37:19 10° NNW 22:42:42 76° WSW 22:46:03 23° SSE
ATLAS 3B R/B 3.2 22:36:59 10° WSW 22:43:30 57° NNW 22:50:10 10° NE
Cosmos 1428 Rocket 4.5 22:37:43 10° NNW 22:43:59 76° W 22:47:51 25° S
Cosmos 1943 4.3 22:40:12 10° NNW 22:45:37 46° NE 22:51:01 10° ESE
Cosmos 1300 Rocket 3.9 22:47:00 32° SW 22:48:44 54° WNW 22:53:00 10° N
Cosmos 1707 4.1 22:46:35 10° NW 22:49:48 24° W 22:50:34 23° WSW
Okean 2 Rocket 3.6 22:48:56 30° SW 22:50:52 50° WNW 22:55:18 10° N
Cosmos 1674 2.7 22:47:45 10° NNW 22:51:27 59° W 22:52:30 40° SSW
BREEZE-M TANK 4.4 22:53:46 15° SE 22:53:46 15° SE 22:55:17 10° SE
Cosmos 1092 Rocket 4.4 22:48:15 10° NNW 22:54:15 50° W 22:57:33 26° SSW
ADEOS II 3.8 22:50:40 10° NE 22:55:00 25° E 22:59:18 10° SE
Cosmos 2098 Rocket 4.3 22:50:50 10° N 22:55:33 53° ENE 23:01:28 10° SSE
Cosmos 2227 Rocket 2.3 22:53:32 28° SSW 22:56:37 68° ESE 23:02:16 10° NE
Lacrosse 4 Rocket 3.1 22:54:02 10° W 22:57:48 30° NNW 23:01:28 10° NNE
Cosmos 2266 Rocket 4.5 22:51:42 10° N 22:58:03 60° ENE 23:04:15 10° SSE
Cosmos 1461 4.4 22:56:59 21° SSE 22:58:43 27° ESE 23:02:34 10° ENE
Okean 1 Rocket 3.0 22:58:10 31° S 23:00:13 81° E 23:04:38 10° NNE
GEOS 3 Rocket 4.3 22:55:53 10° NE 23:01:02 43° SE 23:03:52 24° S
Okean 1-7 Rocket 4.1 22:58:41 10° N 23:03:04 58° ENE 23:06:44 14° SSE
Cosmos 1805 3.2 23:05:28 33° S 23:07:09 83° ESE 23:11:04 10° NNE
CZ-2D R/B 2.5 23:02:35 10° NNE 23:08:03 62° ESE 23:11:44 21° S
Cosmos 1733 3.5 23:06:22 29° S 23:08:11 62° E 23:12:01 10° NNE
SL-16 R/B 2.6 23:03:54 20° S 23:08:27 70° WSW 23:14:45 10° NNW
CZ-4C R/B 3.0 23:11:20 34° S 23:12:44 66° WSW 23:16:22 10° NNW
SJ 16-02 1.8 23:10:44 25° S 23:13:03 54° ESE 23:17:22 10° NNE
SL-14 R/B 3.1 23:11:01 10° NNW 23:14:59 83° W 23:17:08 25° S
NPP 4.0 23:11:19 10° NNE 23:16:42 62° ESE 23:20:29 19° S
CENTAUR R/B 3.9 23:11:22 10° WNW 23:18:06 48° N 23:25:57 10° ENE
Cosmos 1655 Rocket 4.0 23:12:11 10° NNW 23:18:31 86° W 23:23:50 15° S
Cosmos 2082 3.9 23:16:28 23° S 23:19:57 62° ESE 23:25:31 10° NE
Uosat 12 SS-18 rocket 4.1 23:17:56 25° SW 23:20:42 86° SE 23:25:05 10° NE
MOZ.5/SAFIR/RUBIN 5/SL-8 4.4 23:20:55 25° SSW 23:23:06 40° W 23:27:36 10° NNW
Meteor 1-15 Rocket 4.3 23:20:37 24° SSW 23:24:08 68° WNW 23:29:44 10° NNE
NOSS 3-1 (C) 4.3 23:21:55 18° S 23:25:31 36° ESE 23:31:22 10° ENE
USA 267 3.2 23:19:37 10° ESE 23:26:12 84° SSW 23:32:47 10° WNW
Cosmos 1626 Rocket 4.4 23:22:19 10° N 23:26:33 48° ENE 23:30:44 10° SSE
SL-16 R/B 2.7 23:21:20 10° NW 23:26:37 39° WSW 23:29:54 21° SSW
Helios 1B rocket 3.7 23:25:15 10° N 23:28:50 29° WNW 23:31:05 18° WSW
Cosmos 1455 Rocket 3.6 23:27:57 17° S 23:31:12 56° E 23:35:34 10° NNE
Cosmos 1626 2.4 23:29:50 10° NNW 23:33:27 48° W 23:35:08 27° SSW
Cosmos 2112 Rocket 4.3 23:31:36 10° NW 23:36:35 46° WSW 23:40:11 18° S
Cosmos 1892 Rocket 3.7 23:32:16 10° NNW 23:36:42 59° W 23:39:36 20° S
Cosmos 1937 Rocket 4.2 23:37:06 15° S 23:41:14 48° ESE 23:46:21 10° NE
Meteor 1-24 Rocket 3.9 23:37:31 10° NNW 23:42:49 50° W 23:46:34 18° SSW
Cosmos 2263 Rocket 3.6 23:38:14 10° SSE 23:42:59 30° ESE 23:47:45 10° NE
CBERS-1 4.4 23:40:05 10° NNE 23:45:11 60° ESE 23:49:37 13° S
Cosmos 990 Rocket 4.1 23:46:43 18° SSW 23:50:32 74° ESE 23:55:43 10° NNE
ARIANE 5 R/B 3.8 23:45:46 10° NNE 23:50:37 37° E 23:55:27 10° SSE
Cosmos 1758 3.8 23:47:34 15° S 23:50:50 59° E 23:54:47 10° NNE
Cosmos 2297 Rocket 2.6 23:46:33 16° WSW 23:50:56 56° NW 23:56:32 10° NNE
Cosmos 1898 Rocket 3.6 23:47:46 18° SSW 23:51:42 71° ESE 23:56:54 10° NNE
Cosmos 1680 Rocket 4.3 23:48:21 10° NW 23:52:56 31° WSW 23:55:57 18° SSW
Cosmos 2237 Rocket 4.2 23:57:03 10° W 23:57:53 10° W 23:58:43 10° WSW
